Zurück zum Katalog

CZ-3C DEB

LostGTO
NORAD 40816·DEBRIS·🇨🇳 China

Gestartet Oct 31, 2010 von Xichang Satellite Launch Center

Loading…

TLE

VeraltetSource: Space-Track

Epoche: Oct 24, 2024, 10:21 UTC

1 40816U 10057AH  24298.43136527 -.00000069  00000-0 -64025-4 0  9996
2 40816  19.7804 245.1152 7117488 261.2264  19.5039  2.29515110 85915

Verfolge CZ-3C DEB in Echtzeit mit AllMySat

Download on the App Store